[[{"header":{"parameterUnit":"m.s-1","parameterCategory":1,"la1":30.2991,"la2":30.254,"lo1":-89.0895,"lo2":-89.0444,"dy":0.0017,"dx":0.0017,"nx":28,"ny":28,"refTime":"2023-11-16T09:00:00:Z","depth":0,"parameterNumber":2,"parameterNumberName":"U-component_of_WINDS"},"data":[0,0,0,0,0,0,0,0,0,0,0,0,0,0,0,0,0,0,0,0,0,0,0,0,0,0,0,0,0,0,0,0,0,0,0,0,0,0,0,0,0,0,0,0,0,0,0,0,0,0,0,0,0,0,0,0,0,0,-4.7349,-4.735,0,-4.7421,-4.7422,-4.7423,-4.7345,-4.7342,-4.7339,-4.7337,-4.7411,-4.7416,-4.742,0,0,0,0,0,0,0,0,0,0,0,0,0,-4.7145,-4.7149,-4.7349,-4.735,-4.7351,-4.7421,-4.7422,-4.7423,-4.7346,-4.7342,-4.7339,-4.7335,-4.741,-4.7415,-4.7421,0,0,0,0,0,0,0,0,0,0,0,0,0,-4.7227,-4.715,-4.7349,-4.7321,-4.7319,-4.7421,-4.7422,-4.7423,-4.7347,-4.7342,-4.7338,-4.7333,-4.7408,-4.7415,-4.7422,-4.7555,0,0,-4.7443,-4.7447,0,0,0,0,0,0,0,0,-4.7222,-4.7235,-4.7324,-4.7323,-4.7321,-4.737,-4.7377,-4.7468,-4.7348,-4.7336,-4.7336,-4.7331,-4.7401,-4.7408,-4.7432,-4.7558,-4.7562,-4.7444,-4.7448,-4.7451,-4.7453,0,0,0,0,0,0,0,-4.7217,-4.7231,-4.7378,-4.7325,-4.7324,-4.7305,-4.7311,-4.7394,-4.7393,-4.7337,-4.7331,-4.7341,-4.7399,-4.7425,-4.7433,-4.7563,-4.7444,-4.745,-4.7455,-4.7457,-4.7804,-4.7808,0,0,0,0,0,0,-4.7214,-4.7227,-4.7375,-4.738,-4.726,-4.7312,-4.7319,-4.7359,-4.7392,-4.7392,-4.7345,-4.7337,-4.7415,-4.7425,-4.7435,-4.7595,-4.7451,-4.7458,-4.7462,-4.7799,-4.7805,-4.781,0,0,0,0,0,0,-4.721,-4.7228,-4.7372,-4.7302,-4.7319,-4.732,-4.7365,-4.7362,-4.7388,-4.7398,-4.7397,-4.7371,-4.7412,-4.7425,-4.7526,-4.7596,-4.7461,-4.7468,-4.7793,-4.78,-4.7807,-4.7914,0,0,0,0,0,0,-4.7205,-4.7227,-4.7278,-4.7304,-4.7323,-4.7462,-4.7369,-4.7367,-4.74,-4.7391,-4.7422,-4.7423,-4.7409,-4.7516,-4.7533,-4.7603,-4.7473,-4.7787,-4.7796,-4.7805,-4.7904,-4.7924,-4.7941,0,0,0,0,0,-4.7198,-4.7305,-4.7281,-4.7299,-4.7386,-4.7466,-4.7477,-4.7459,-4.7406,-4.7458,-4.7464,-4.7422,-4.7585,-4.7527,-4.7546,-4.7619,-4.7782,-4.7794,-4.7804,-4.7896,-4.792,-4.7941,0,0,0,0,0,0,-4.7288,-4.7308,-4.7281,-4.74,-4.7432,-4.7453,-4.7517,-4.7485,-4.7533,-4.7522,-4.7498,-4.7505,-4.7613,-4.7625,-4.756,-4.775,-4.7675,-4.769,-4.7738,-4.7761,-4.7779,-4.7775,-4.7479,0,0,0,0,0,-4.7321,-4.7385,-4.7399,-4.7502,-4.752,-4.7516,-4.755,-4.7533,-4.7565,-4.7579,-4.7592,-4.7625,-4.7684,-4.7723,-4.7777,-4.7905,-4.7911,-4.7965,-4.7983,-4.7998,-4.8012,-4.8082,-4.8106,-4.7846,-4.7846,-4.7846,0,0,-4.7391,-4.741,-4.7452,-4.7521,-4.7544,-4.761,-4.7528,-4.7601,-4.7651,-4.759,-4.7686,-4.7697,-4.7732,-4.7848,-4.7899,-4.7862,-4.8085,-4.8012,-4.8024,-4.803,-4.8096,-4.8121,-4.8143,-4.7854,-4.7852,-4.7851,0,0,-4.7554,-4.7574,-4.7663,-4.7688,-4.7723,-4.772,-4.7741,-4.7767,-4.7772,-4.7868,-4.7824,-4.7882,-4.7984,-4.8011,-4.8038,-4.8211,-4.8175,-4.8229,-4.8326,-4.8394,-4.8415,-4.8433,-4.8496,-4.8519,-4.8243,-4.8243,-4.8243,0,-4.7637,-4.7735,-4.7713,-4.779,-4.7822,-4.777,-4.786,-4.7885,-4.7936,-4.796,-4.7917,-4.8043,-4.8063,-4.8185,-4.8227,-4.825,-4.8275,-4.8226,-4.8414,-4.8431,-4.8448,-4.8508,-4.8531,-4.825,-4.8249,-4.8248,-4.8248,0,-4.7836,-4.7905,-4.7973,-4.8024,-4.8063,-4.8147,-4.8137,-4.818,-4.8159,-4.8161,-4.826,-4.8282,-4.834,-4.8367,-4.8348,-4.8487,-4.8462,-4.8417,-4.8341,-4.848,-4.8536,-4.8558,-4.8259,-4.8257,-4.8255,-4.8253,0,0,-4.8059,-4.8096,-4.8122,-4.8145,-4.818,-4.8233,-4.8314,-4.8371,-4.8408,-4.8445,-4.8514,-4.86,-4.8559,-4.859,-4.8573,-4.8633,-4.877,-4.858,-4.858,-4.8616,-4.8925,-4.896,-4.8987,-4.8745,-4.875,-4.8753,-4.8922,0,-4.8223,-4.8363,-4.8346,-4.8481,-4.8544,-4.8495,-4.8566,-4.8596,-4.8599,-4.8654,-4.8657,-4.872,-4.8659,-4.8678,-4.8734,-4.8741,-4.8832,-4.8728,-4.881,-4.8813,-4.8804,-4.9016,-4.9053,-4.9212,-4.8944,-4.8948,-4.895,0,-4.8433,-4.8479,-4.862,-4.8646,-4.8672,-4.8736,-4.8787,-4.884,-4.8872,-4.8871,-4.8905,-4.8878,-4.896,-4.8881,-4.8994,-4.8924,-4.8956,-4.8964,-4.897,-4.8978,-4.8891,-4.9031,-4.9262,-4.9287,-4.8984,-4.8982,-4.8979,0,-4.8583,-4.8679,-4.8776,-4.8797,-4.883,-4.8876,-4.8892,-4.892,-4.8955,-4.9,-4.9023,-4.9076,-4.9106,-4.9148,-4.9136,-4.908,-4.9253,-4.9173,-4.9254,-4.9255,-4.9294,-4.9292,-4.9535,-4.9312,-4.9312,-4.9312,-4.9311,0,-4.877,-4.8859,-4.8844,-4.8905,-4.9003,-4.8981,-4.9079,-4.9088,-4.9114,-4.9175,-4.9135,-4.9194,-4.9174,-4.9231,-4.9222,-4.9318,-4.9331,-4.9333,-4.933,-4.9337,-4.9338,-4.9359,-4.9348,-4.9318,-4.9316,-4.9315,-4.9314,0,-4.8954,-4.8948,-4.9051,-4.9073,-4.9081,-4.9153,-4.9171,-4.9228,-4.9228,-4.9306,-4.9323,-4.9323,-4.9389,-4.9381,-4.9454,-4.9448,-4.9568,-4.955,-4.9557,-4.9554,-4.9636,-4.9629,-4.9903,-4.9938,-4.9691,-4.9694,-4.9696,0,-4.9074,-4.9142,-4.9171,-4.9209,-4.9228,-4.929,-4.9326,-4.9307,-4.9347,-4.9389,-4.9441,-4.9503,-4.9552,-4.9659,-4.9666,-4.9722,-4.9707,-4.9799,-4.9715,-4.9721,-4.971,-4.9707,-4.9714,-4.9816,-4.9819,-4.9821,-4.9823,0,-4.9289,-4.9282,-4.9336,-4.9389,-4.9433,-4.9474,-4.9511,-4.9544,-4.9529,-4.9575,-4.9642,-4.968,-4.9754,-4.9817,-4.987,-4.9886,-4.9853,-4.9849,-4.9871,-4.988,-4.9882,-4.9884,-4.9604,-4.9843,-4.9841,-4.9839,-4.9838,-4.9838,-4.9446,-4.9504,-4.9534,-4.9595,-4.962,-4.9656,-4.971,-4.9717,-4.9772,-4.9832,-4.9817,-4.9893,-4.9924,-4.9991,-5.0013,-5.0072,-5.0039,-5.007,-5.0079,-5.0087,-5.0098,-4.9871,-5.0081,-5.0081,-5.008,-5.008,-5.0079,0,-4.9659,-4.9676,-4.9733,-4.9785,-4.9834,-4.9797,-4.9836,-4.9879,-4.9946,-4.9977,-5.0026,-5.0103,-5.0164,-5.0175,-5.0233,-5.0278,-5.0265,-5.0294,-5.0292,-5.0296,-5.0124,-5.0099,-5.0305,-5.0305,-5.0305,-5.0305,-5.0304,-5.0304,-4.9776,-4.9873,-4.987,-4.9979,-4.9995,-5.0069,-5.0094,-5.0127,-5.0152,-5.024,-5.029,-5.0296,-5.032,-5.038,-5.0434,-5.0435,-5.0459,-5.0496,-5.0492,-5.0331,-5.0308,-5.0287,-5.0264,-5.0501,-5.0501,-5.066,-5.0661,-5.0662]},{"header":{"parameterUnit":"m.s-1","parameterCategory":1,"la1":30.2991,"la2":30.254,"lo1":-89.0895,"lo2":-89.0444,"dy":0.0017,"dx":0.0017,"nx":28,"ny":28,"refTime":"2023-11-16T09:00:00:Z","depth":0,"parameterNumber":3,"parameterNumberName":"V-component_of_WINDS"},"data":[0,0,0,0,0,0,0,0,0,0,0,0,0,0,0,0,0,0,0,0,0,0,0,0,0,0,0,0,0,0,0,0,0,0,0,0,0,0,0,0,0,0,0,0,0,0,0,0,0,0,0,0,0,0,0,0,0,0,-5.1258,-5.1258,0,-5.1273,-5.1273,-5.1273,-5.1191,-5.1189,-5.1186,-5.1184,-5.1198,-5.12,-5.1203,0,0,0,0,0,0,0,0,0,0,0,0,0,-5.1156,-5.1158,-5.1258,-5.1258,-5.1258,-5.1273,-5.1273,-5.1273,-5.1191,-5.1188,-5.1186,-5.1183,-5.1197,-5.12,-5.1203,0,0,0,0,0,0,0,0,0,0,0,0,0,-5.1189,-5.1159,-5.1258,-5.1219,-5.1216,-5.1273,-5.1273,-5.1273,-5.1192,-5.1188,-5.1185,-5.1182,-5.1196,-5.1199,-5.1203,-5.1297,0,0,-5.1215,-5.1217,0,0,0,0,0,0,0,0,-5.1187,-5.1192,-5.1225,-5.1222,-5.1218,-5.1226,-5.1242,-5.1281,-5.1193,-5.1201,-5.1184,-5.118,-5.121,-5.1212,-5.1223,-5.1298,-5.1299,-5.1215,-5.1218,-5.1219,-5.122,0,0,0,0,0,0,0,-5.1185,-5.1191,-5.1264,-5.1225,-5.1221,-5.12,-5.1201,-5.1249,-5.1225,-5.12,-5.1194,-5.1197,-5.1207,-5.1219,-5.1223,-5.1299,-5.1215,-5.1219,-5.1221,-5.1222,-5.1451,-5.1455,0,0,0,0,0,0,-5.1188,-5.119,-5.1263,-5.1264,-5.1194,-5.1205,-5.1206,-5.1227,-5.1224,-5.122,-5.12,-5.1193,-5.1215,-5.1218,-5.1223,-5.1332,-5.1219,-5.1223,-5.1225,-5.1447,-5.1452,-5.1456,0,0,0,0,0,0,-5.1186,-5.1195,-5.1263,-5.1226,-5.1232,-5.1211,-5.1235,-5.123,-5.1241,-5.1224,-5.1219,-5.1217,-5.1212,-5.1217,-5.1279,-5.1332,-5.1224,-5.1228,-5.1443,-5.1449,-5.1454,-5.1553,0,0,0,0,0,0,-5.1184,-5.1195,-5.1231,-5.1227,-5.1235,-5.132,-5.1239,-5.1232,-5.1248,-5.124,-5.1239,-5.1235,-5.121,-5.1274,-5.1283,-5.1335,-5.1231,-5.1438,-5.1446,-5.1452,-5.1545,-5.1562,-5.1576,0,0,0,0,0,-5.118,-5.1259,-5.1234,-5.1243,-5.128,-5.1323,-5.1328,-5.1297,-5.1253,-5.1289,-5.1278,-5.1235,-5.1325,-5.1281,-5.1291,-5.1345,-5.1435,-5.1443,-5.1452,-5.1538,-5.1558,-5.1575,0,0,0,0,0,0,-5.1269,-5.1257,-5.123,-5.1309,-5.1318,-5.131,-5.1354,-5.1319,-5.1341,-5.1332,-5.1292,-5.1292,-5.1361,-5.1359,-5.1311,-5.1435,-5.1372,-5.1383,-5.1434,-5.1453,-5.1468,-5.1468,-5.1234,0,0,0,0,0,-5.1298,-5.1335,-5.1322,-5.1394,-5.14,-5.1376,-5.1394,-5.137,-5.1377,-5.138,-5.1374,-5.1382,-5.1412,-5.1432,-5.1459,-5.1544,-5.1543,-5.1586,-5.1601,-5.1614,-5.1624,-5.1668,-5.1687,-5.1484,-5.1484,-5.1484,0,0,-5.1358,-5.1356,-5.1382,-5.1412,-5.1416,-5.1454,-5.138,-5.1424,-5.1452,-5.1387,-5.1445,-5.1441,-5.1447,-5.1521,-5.1554,-5.1521,-5.1679,-5.1624,-5.1635,-5.1638,-5.1679,-5.1698,-5.1715,-5.149,-5.1489,-5.1488,0,0,-5.1488,-5.149,-5.155,-5.1555,-5.1562,-5.1546,-5.156,-5.1557,-5.1552,-5.161,-5.1561,-5.1594,-5.1646,-5.1652,-5.1663,-5.1794,-5.1755,-5.1803,-5.1883,-5.1927,-5.1943,-5.1957,-5.2004,-5.2021,-5.1813,-5.1813,-5.1814,0,-5.1561,-5.1618,-5.1584,-5.1632,-5.1646,-5.1589,-5.1648,-5.1655,-5.167,-5.1681,-5.1645,-5.1709,-5.1709,-5.1784,-5.1816,-5.1826,-5.1841,-5.1804,-5.1944,-5.1957,-5.197,-5.2014,-5.2032,-5.1819,-5.1819,-5.1818,-5.1817,0,-5.1708,-5.1749,-5.1796,-5.1813,-5.1832,-5.1885,-5.1858,-5.1881,-5.1855,-5.1843,-5.1902,-5.19,-5.1925,-5.1941,-5.1916,-5.2012,-5.1992,-5.1951,-5.1886,-5.1996,-5.2036,-5.2053,-5.1828,-5.1825,-5.1824,-5.1822,0,0,-5.1895,-5.1892,-5.191,-5.1917,-5.192,-5.195,-5.2,-5.2025,-5.2046,-5.2058,-5.2099,-5.2144,-5.2105,-5.2117,-5.2091,-5.213,-5.2234,-5.2083,-5.2083,-5.2112,-5.234,-5.2372,-5.2392,-5.2208,-5.2211,-5.2214,-5.2339,0,-5.2022,-5.2108,-5.2079,-5.2166,-5.2203,-5.2148,-5.2192,-5.2198,-5.2187,-5.2216,-5.2203,-5.2236,-5.2183,-5.219,-5.2225,-5.2214,-5.2279,-5.2204,-5.2245,-5.2247,-5.2246,-5.2413,-5.2447,-5.2566,-5.2355,-5.2358,-5.236,0,-5.2181,-5.22,-5.2292,-5.2289,-5.2303,-5.2343,-5.2363,-5.2391,-5.2396,-5.2386,-5.2399,-5.2365,-5.2413,-5.2348,-5.2414,-5.2364,-5.2378,-5.2375,-5.2379,-5.2382,-5.2311,-5.2421,-5.2603,-5.2621,-5.2384,-5.2382,-5.2381,0,-5.2309,-5.2357,-5.2418,-5.2425,-5.2423,-5.2452,-5.2452,-5.2454,-5.2471,-5.2488,-5.2498,-5.2521,-5.2533,-5.2551,-5.2524,-5.248,-5.2594,-5.2527,-5.2586,-5.2587,-5.2613,-5.2612,-5.28,-5.2622,-5.2622,-5.2621,-5.2621,0,-5.2453,-5.2512,-5.2475,-5.2513,-5.2576,-5.254,-5.2604,-5.2598,-5.26,-5.2635,-5.2589,-5.2622,-5.2584,-5.2614,-5.2593,-5.265,-5.2656,-5.2649,-5.2642,-5.2653,-5.2654,-5.2663,-5.2654,-5.2626,-5.2625,-5.2624,-5.2623,0,-5.2607,-5.2585,-5.2647,-5.264,-5.2639,-5.2686,-5.2679,-5.2713,-5.2698,-5.2743,-5.2752,-5.2729,-5.2762,-5.2736,-5.2768,-5.2754,-5.283,-5.2812,-5.2828,-5.2824,-5.2884,-5.2879,-5.3085,-5.311,-5.2916,-5.2918,-5.292,0,-5.2701,-5.2744,-5.2741,-5.2762,-5.2765,-5.2798,-5.2815,-5.2781,-5.28,-5.281,-5.2843,-5.2871,-5.2893,-5.2947,-5.2933,-5.2957,-5.294,-5.301,-5.2943,-5.2952,-5.2941,-5.2939,-5.2943,-5.3024,-5.3026,-5.3028,-5.303,0,-5.2871,-5.2857,-5.2883,-5.2906,-5.2927,-5.2943,-5.2956,-5.2975,-5.294,-5.2964,-5.2997,-5.3014,-5.3046,-5.3075,-5.3094,-5.3093,-5.3056,-5.3051,-5.3066,-5.3077,-5.3086,-5.3082,-5.2866,-5.3046,-5.3045,-5.3043,-5.3043,-5.3042,-5.2997,-5.3033,-5.3037,-5.3067,-5.3073,-5.3085,-5.3117,-5.3106,-5.3133,-5.3157,-5.3135,-5.3175,-5.3179,-5.3201,-5.3204,-5.3235,-5.3205,-5.3227,-5.3233,-5.3239,-5.3248,-5.308,-5.3238,-5.3237,-5.3237,-5.3236,-5.3236,0,-5.3165,-5.3164,-5.3192,-5.3211,-5.3235,-5.3198,-5.3209,-5.3231,-5.3267,-5.3274,-5.3295,-5.3333,-5.3361,-5.3349,-5.3373,-5.34,-5.3383,-5.3407,-5.3405,-5.3405,-5.3272,-5.3257,-5.342,-5.342,-5.342,-5.342,-5.342,-5.342,-5.3255,-5.3313,-5.33,-5.3361,-5.336,-5.3399,-5.3408,-5.3419,-5.3424,-5.3469,-5.3491,-5.3484,-5.3483,-5.3506,-5.353,-5.3525,-5.3537,-5.3567,-5.3557,-5.3433,-5.3415,-5.3398,-5.3383,-5.357,-5.357,-5.3688,-5.3689,-5.369]}]]